QPF
0.00 0.00 0.00 0.00 0.00 0.00 0.00 0.00 0.00 0.00 0.00 0.00 0.00 0.00 0.00 0.00 0.00 0.00 0.00 0.00 0.00 0.00 0.00 0.00 0.00 0.00 0.00 0.00 0.00 0.00 0.00 0.00 0.00 0.00 0.00 0.00 0.00 0.00 0.00 0.00 0.00 0.00
0.00 0.00 0.00 0.00 0.00 0.00 0.00 0.00 0.00 0.00 0.00 0.00 0.00 0.00 0.00 0.00 0.00 0.00 0.00 0.00 0.00 0.00 0.00 0.00 0.00 0.00 0.00 0.00 0.00 0.00 0.00 0.00 0.00 0.00 0.00 0.00 0.00 0.00 0.00 0.00 0.00 0.00
0.00 0.00 0.00 0.00 0.00 0.00 0.00 0.00 0.00 0.00 0.00 0.00 0.00 0.00 0.00 0.00 0.00 0.00 0.00 0.00 0.00 0.00 0.00 0.00 0.00 0.00 0.00 0.00 0.00 0.00 0.00 0.00 0.00 0.00 0.00 0.00 0.00 0.00 0.00 0.00 0.00 0.00
0.00 0.00 0.00 0.00 0.00 0.00 0.00 0.00 0.00 0.00 0.00 0.00 0.00 0.00 0.00 0.00 0.00 0.00 0.00 0.00 0.00 0.00 0.00 0.00 0.00 0.00 0.00 0.00 0.00 0.00 0.00 0.00 0.00 0.00 0.00 0.00 0.00 0.00 0.00 0.00 0.00 0.00
0.00 0.00 0.00 0.00 0.00 0.00 0.00 0.00 0.00 0.00 0.00 0.00 0.00 0.00 0.00 0.00 0.00 0.00 0.00 0.00 0.00 0.00 0.00 0.00 0.00 0.00 0.00 0.00 0.00 0.00 0.00 0.00 0.00 0.00 0.00 0.00 0.00 0.00 0.00 0.00 0.00 0.00
0.00 0.00 0.00 0.00 0.00 0.00 0.00 0.00 0.00 0.00 0.00 0.00 0.00 0.00 0.00 0.00 0.00 0.00 0.00 0.00 0.00 0.00 0.00 0.00 0.00 0.00 0.00 0.00 0.00 0.00 0.00 0.00 0.00 0.00 0.00 0.00 0.00 0.00 0.00 0.00 0.00 0.00
0.00 0.00 0.00 0.00 0.00 0.00 0.00 0.00 0.00 0.00 0.00 0.00 0.00 0.00 0.00 0.00 0.00 0.00 0.00 0.00 0.00 0.00 0.00 0.00 0.00 0.00 0.00 0.00 0.00 0.00 0.00 0.00 0.00 0.00 0.00 0.00 0.00 0.00 0.00 0.00 0.00 0.00
0.00 0.00 0.00 0.00 0.00 0.00 0.00 0.00 0.00 0.00 0.00 0.00 0.00 0.00 0.00 0.00 0.00 0.00 0.00 0.00 0.00 0.00 0.00 0.00 0.00 0.00 0.00 0.00 0.00 0.00 0.00 0.00 0.00 0.00 0.00 0.00 0.00 0.00 0.00 0.00 0.00 0.00
0.00 0.00 0.00 0.00 0.00 0.00 0.00 0.00 0.00 0.00 0.00 0.00 0.00 0.00 0.00 0.00 0.00 0.00 0.00 0.00 0.00 0.00 0.00 0.00 0.00 0.00 0.00 0.00 0.00 0.00 0.00 0.00 0.00 0.00 0.00 0.00 0.00 0.00 0.00 0.00 0.00 0.00
0.00 0.00 0.00 0.00 0.00 0.00 0.00 0.00 0.00 0.00 0.00 0.00 0.00 0.00 0.00 0.00 0.00 0.00 0.00 0.00 0.00 0.00 0.00 0.00 0.00 0.00 0.00 0.00 0.00 0.00 0.00 0.00 0.00 0.00 0.00 0.00 0.00 0.00 0.00 0.00 0.00 0.00
0.00 0.00 0.00 0.00 0.00 0.00 0.00 0.00 0.00 0.00 0.00 0.00 0.00 0.00 0.01 0.00 0.00 0.00 0.00 0.00 0.00 0.00 0.00 0.00 0.00 0.00 0.00 0.00 0.00 0.00 0.00 0.00 0.00 0.00 0.00 0.00 0.00 0.00 0.00 0.00 0.00 0.00
0.00 0.00 0.00 0.00 0.00 0.00 0.00 0.00 0.00 0.00 0.00 0.00 0.00 0.00 0.00 0.00 0.00 0.00 0.00 0.00 0.00 0.00 0.00 0.00 0.00 0.00 0.00 0.00 0.00 0.00 0.00 0.00 0.00 0.00 0.00 0.00 0.00 0.00 0.00 0.00 0.00 0.00
0.00 0.00 0.00 0.00 0.00 0.00 0.00 0.00 0.00 0.00 0.00 0.00 0.00 0.00 0.00 0.00 0.00 0.00 0.00 0.00 0.00 0.00 0.00 0.00 0.00 0.00 0.00 0.00 0.00 0.00 0.00 0.00 0.00 0.00 0.00 0.00 0.00 0.00 0.00 0.00 0.00 0.00
0.00 0.00 0.00 0.00 0.00 0.00 0.00 0.00 0.00 0.00 0.00 0.00 0.00 0.00 0.00 0.00 0.00 0.00 0.00 0.00 0.00 0.00 0.00 0.00 0.00 0.00 0.00 0.00 0.00 0.00 0.00 0.00 0.00 0.00 0.00 0.00 0.00 0.00 0.00 0.00 0.00 0.00
0.00 0.00 0.00 0.00 0.00 0.00 0.00 0.00 0.00 0.00 0.00 0.00 0.00 0.00 0.00 0.00 0.01 0.00 0.03 0.00 0.01 0.00 0.01 0.00 0.00 0.01 0.00 0.00 0.00 0.00 0.00 0.00 0.00 0.00 0.00 0.00 0.00 0.00 0.00 0.00 0.00 0.00
0.00 0.00 0.00 0.00 0.00 0.00 0.00 0.00 0.00 0.00 0.00 0.00 0.00 0.00 0.00 0.00 0.00 0.00 0.00 0.00 0.00 0.00 0.00 0.00 0.00 0.00 0.00 0.00 0.00 0.00 0.00 0.00 0.00 0.00 0.00 0.00 0.00 0.00 0.00 0.00 0.00 0.00
0.00 0.00 0.00 0.00 0.00 0.00 0.00 0.00 0.00 0.00 0.00 0.00 0.00 0.00 0.00 0.00 0.00 0.00 0.00 0.00 0.00 0.00 0.00 0.00 0.00 0.00 0.00 0.00 0.00 0.00 0.00 0.00 0.00 0.00 0.00 0.00 0.00 0.00 0.00 0.00 0.00 0.00
0.00 0.00 0.00 0.00 0.00 0.00 0.00 0.00 0.00 0.00 0.00 0.00 0.00 0.00 0.00 0.00 0.00 0.00 0.00 0.00 0.00 0.00 0.00 0.00 0.00 0.00 0.00 0.00 0.00 0.00 0.00 0.00 0.00 0.00 0.00 0.00 0.00 0.00 0.00 0.00 0.00 0.00
0.00 0.00 0.00 0.00 0.00 0.00 0.00 0.00 0.00 0.00 0.00 0.00 0.00 0.00 0.00 0.00 0.00 0.00 0.00 0.00 0.00 0.00 0.00 0.00 0.00 0.00 0.00 0.00 0.00 0.00 0.00 0.00 0.00 0.00 0.00 0.00 0.00 0.00 0.00 0.00 0.00 0.00
0.00 0.00 0.01 0.13 0.30 0.28 0.19 0.07 0.04 0.04 0.00 0.00 0.00 0.00 0.00 0.00 0.00 0.00 0.00 0.00 0.00 0.00 0.00 0.00 0.00 0.00 0.00 0.00 0.00 0.00 0.00 0.00 0.00 0.00 0.00 0.00 0.00 0.00 0.00 0.00 0.00 0.00
0.00 0.00 0.00 0.12 0.29 0.32 0.26 0.25 0.12 0.29 0.14 0.17 0.10 0.06 0.01 0.00 0.00 0.00 0.00 0.00 0.00 0.00 0.00 0.00 0.00 0.00 0.00 0.00 0.00 0.00 0.00 0.00 0.00 0.00 0.00 0.00 0.00 0.00 0.00 0.00 0.00 0.00
0.00 0.00 0.00 0.01 0.04 0.07 0.04 0.03 0.11 0.05 0.12 0.31 0.24 0.06 0.01 0.01 0.02 0.00 0.00 0.00 0.00 0.00 0.00 0.00 0.00 0.00 0.00 0.00 0.00 0.00 0.00 0.00 0.00 0.00 0.00 0.00 0.00 0.00 0.00 0.00 0.00 0.00
0.00 0.05 0.02 0.00 0.00 0.00 0.00 0.02 0.00 0.00 0.00 0.00 0.00 0.01 0.02 0.02 0.01 0.01 0.00 0.00 0.00 0.00 0.00 0.00 0.00 0.00 0.00 0.00 0.00 0.00 0.00 0.00 0.00 0.00 0.00 0.00 0.00 0.00 0.00 0.00 0.00 0.00
0.21 0.17 0.12 0.09 0.06 0.01 0.00 0.00 0.00 0.00 0.00 0.00 0.00 0.01 0.01 0.01 0.01 0.02 0.03 0.03 0.02 0.01 0.00 0.00 0.00 0.00 0.00 0.00 0.00 0.00 0.00 0.00 0.00 0.00 0.00 0.00 0.00 0.00 0.00 0.00 0.00 0.00
0.29 0.15 0.19 0.26 0.23 0.16 0.05 0.01 0.00 0.04 0.25 0.06 0.15 0.23 0.04 0.03 0.02 0.03 0.04 0.06 0.07 0.06 0.04 0.05 0.03 0.02 0.02 0.01 0.01 0.00 0.00 0.00 0.00 0.00 0.00 0.00 0.00 0.00 0.00 0.00 0.00 0.00
0.26 0.09 0.15 0.30 0.43 0.56 0.47 0.12 0.25 0.57 0.68 0.26 0.24 0.17 0.02 0.02 0.05 0.06 0.08 0.08 0.07 0.06 0.05 0.04 0.04 0.03 0.02 0.02 0.01 0.01 0.01 0.01 0.01 0.01 0.00 0.00 0.00 0.00 0.00 0.00 0.00 0.00
MSLP
1018.52 1018.68 1019.00 1019.20 1019.40 1019.44 1019.68 1019.96 1019.96 1020.16 1020.28 1020.24 1020.40 1020.32 1020.28 1020.16 1020.00 1020.12 1020.20 1020.24 1020.32 1020.44 1020.44 1020.48 1020.56 1020.68 1020.68 1020.76 1020.88 1021.00 1021.08 1021.16 1021.12 1021.08 1021.12 1021.20 1021.28 1021.24 1021.32 1021.20 1021.00 1021.00
1018.56 1018.56 1018.76 1018.96 1019.24 1019.24 1019.40 1019.48 1019.72 1019.88 1020.08 1020.04 1020.00 1020.00 1019.92 1019.88 1019.84 1019.96 1020.16 1020.24 1020.28 1020.40 1020.32 1020.44 1020.48 1020.56 1020.68 1020.84 1020.92 1021.08 1021.16 1021.20 1021.32 1020.92 1021.24 1021.32 1021.28 1021.24 1021.24 1021.12 1021.12 1020.92
1018.48 1018.60 1018.76 1019.08 1019.24 1019.32 1019.32 1019.28 1019.44 1019.60 1019.80 1019.76 1019.72 1019.76 1019.80 1019.64 1019.80 1019.88 1019.96 1020.12 1020.28 1020.32 1020.40 1020.40 1020.52 1020.56 1020.64 1020.76 1020.84 1021.00 1021.20 1021.28 1021.44 1021.24 1021.24 1021.32 1021.24 1021.28 1021.20 1021.12 1021.12 1021.00
1018.40 1018.44 1018.60 1018.72 1018.80 1019.04 1019.08 1019.28 1019.40 1019.48 1019.48 1019.68 1019.72 1019.60 1019.56 1019.56 1019.64 1019.84 1019.92 1020.00 1020.24 1020.32 1020.32 1020.40 1020.52 1020.56 1020.60 1020.72 1020.80 1021.00 1021.08 1021.12 1021.12 1021.16 1021.32 1021.24 1021.24 1021.24 1021.24 1021.12 1021.08 1021.04
1018.28 1018.36 1018.36 1018.44 1018.52 1018.64 1018.84 1019.20 1019.36 1019.40 1019.48 1019.44 1019.44 1019.44 1019.52 1019.64 1019.76 1019.88 1019.96 1020.04 1020.12 1020.36 1020.36 1020.44 1020.48 1020.56 1020.56 1020.72 1020.76 1021.04 1021.08 1021.20 1021.08 1021.16 1021.40 1021.56 1021.40 1021.32 1021.20 1021.16 1021.28 1021.24
1018.00 1018.04 1018.16 1018.32 1018.40 1018.64 1018.88 1019.04 1019.08 1019.20 1019.28 1019.36 1019.36 1019.32 1019.44 1019.48 1019.64 1019.84 1019.96 1020.12 1020.12 1020.24 1020.36 1020.36 1020.52 1020.52 1020.52 1020.72 1020.84 1021.00 1021.12 1021.24 1021.12 1021.20 1021.44 1021.60 1021.52 1021.24 1021.20 1021.20 1021.20 1021.32
1018.08 1018.08 1018.20 1018.20 1018.36 1018.44 1018.72 1018.80 1018.84 1018.88 1019.00 1019.04 1019.08 1019.32 1019.28 1019.52 1019.68 1019.76 1019.84 1019.96 1020.08 1020.16 1020.28 1020.36 1020.48 1020.56 1020.52 1020.64 1020.84 1021.04 1021.08 1021.12 1021.08 1021.12 1021.36 1021.44 1021.40 1021.40 1021.12 1021.16 1021.20 1021.28
1017.88 1017.88 1017.96 1018.12 1018.36 1018.48 1018.68 1018.72 1018.72 1018.76 1018.76 1018.84 1019.20 1019.16 1019.16 1019.40 1019.52 1019.60 1019.68 1019.80 1020.00 1020.12 1020.16 1020.20 1020.28 1020.40 1020.40 1020.52 1020.84 1021.04 1021.12 1020.96 1021.08 1021.16 1021.36 1021.44 1021.36 1021.56 1021.36 1021.12 1021.12 1021.32
1017.60 1017.84 1017.92 1018.12 1018.32 1018.44 1018.60 1018.60 1018.60 1018.60 1018.56 1018.84 1018.96 1019.00 1019.00 1019.12 1019.32 1019.44 1019.60 1019.68 1019.84 1019.92 1020.04 1020.12 1020.16 1020.24 1020.24 1020.40 1020.68 1020.84 1021.04 1021.00 1020.92 1021.04 1021.24 1021.44 1021.52 1021.48 1021.28 1021.08 1021.24 1021.32
1017.56 1017.60 1017.84 1018.04 1018.28 1018.28 1018.44 1018.40 1018.32 1018.40 1018.40 1018.68 1018.76 1018.80 1019.00 1019.00 1019.04 1019.20 1019.40 1019.60 1019.76 1019.88 1019.92 1019.96 1020.08 1020.12 1020.20 1020.24 1020.48 1020.64 1020.80 1020.92 1020.88 1020.96 1021.04 1021.16 1021.24 1021.16 1021.08 1021.08 1021.16 1021.32
1017.44 1017.52 1017.76 1017.96 1018.08 1018.08 1018.20 1018.16 1018.08 1018.12 1018.32 1018.52 1018.60 1018.76 1018.80 1018.88 1018.92 1018.96 1019.28 1019.48 1019.72 1019.80 1019.84 1019.92 1019.96 1020.00 1020.16 1020.24 1020.28 1020.28 1020.48 1020.64 1020.68 1020.76 1020.80 1020.80 1020.80 1020.80 1020.80 1020.88 1020.96 1021.08
1017.32 1017.44 1017.60 1017.72 1017.80 1017.88 1017.92 1017.96 1017.92 1018.00 1018.16 1018.24 1018.32 1018.64 1018.64 1018.72 1018.88 1018.92 1019.08 1019.32 1019.36 1019.48 1019.60 1019.72 1019.76 1019.88 1020.04 1020.20 1020.20 1020.24 1020.28 1020.36 1020.40 1020.52 1020.56 1020.60 1020.60 1020.56 1020.56 1020.48 1020.60 1020.60
1017.32 1017.32 1017.32 1017.44 1017.52 1017.56 1017.56 1017.60 1017.72 1017.80 1017.96 1018.16 1018.08 1018.24 1018.48 1018.72 1018.72 1018.84 1018.84 1019.00 1019.12 1019.20 1019.40 1019.52 1019.68 1019.76 1019.92 1020.00 1020.00 1020.04 1020.20 1020.32 1020.40 1020.40 1020.40 1020.40 1020.36 1020.32 1020.20 1020.16 1020.20 1020.20
1017.16 1017.08 1017.08 1017.12 1017.16 1017.28 1017.36 1017.40 1017.44 1017.60 1017.72 1017.72 1017.84 1018.12 1018.28 1018.44 1018.68 1018.92 1018.80 1018.80 1018.92 1019.08 1019.16 1019.16 1019.40 1019.60 1019.68 1019.76 1019.80 1019.92 1020.04 1020.24 1020.28 1020.32 1020.32 1020.28 1020.16 1020.08 1019.96 1019.96 1019.92 1019.88
1016.88 1016.88 1016.84 1016.92 1017.08 1017.16 1017.24 1017.32 1017.40 1017.40 1017.36 1017.52 1017.68 1017.84 1017.88 1018.04 1018.16 1018.40 1018.68 1018.88 1018.84 1019.08 1019.40 1019.08 1019.24 1019.44 1019.48 1019.56 1019.76 1019.80 1019.80 1020.04 1020.08 1020.16 1020.20 1020.24 1020.20 1020.08 1019.88 1019.80 1019.68 1019.60
1016.72 1016.76 1016.84 1016.92 1017.08 1017.20 1017.12 1017.16 1017.24 1017.32 1017.52 1017.56 1017.56 1017.60 1017.72 1017.76 1018.00 1018.24 1018.48 1018.72 1018.92 1018.96 1019.00 1019.00 1019.12 1019.12 1019.32 1019.36 1019.36 1019.48 1019.68 1019.72 1019.84 1019.92 1020.00 1020.04 1020.12 1020.04 1019.92 1019.72 1019.56 1019.52
1016.72 1016.80 1016.80 1017.04 1017.08 1017.12 1017.12 1017.20 1017.32 1017.36 1017.52 1017.68 1017.80 1017.72 1017.68 1017.68 1017.88 1018.12 1018.36 1018.44 1018.60 1018.72 1018.92 1019.00 1019.24 1019.60 1019.64 1019.52 1019.44 1019.44 1019.40 1019.56 1019.72 1019.80 1019.72 1019.84 1019.92 1020.04 1020.12 1019.88 1019.64 1019.40
1016.64 1016.68 1016.84 1017.04 1017.04 1017.24 1017.24 1017.20 1017.28 1017.48 1017.68 1017.92 1018.16 1018.28 1018.16 1017.92 1018.16 1018.40 1018.52 1018.52 1018.48 1018.80 1019.24 1019.56 1019.92 1020.16 1020.00 1019.84 1019.64 1019.52 1019.40 1019.40 1019.48 1019.60 1019.60 1019.60 1019.68 1019.84 1019.92 1019.92 1019.84 1019.64
1016.68 1016.84 1017.04 1017.28 1017.36 1017.36 1017.44 1017.72 1017.96 1018.12 1018.28 1018.24 1018.44 1018.60 1018.52 1018.64 1018.68 1018.60 1018.88 1018.88 1018.96 1019.20 1019.60 1019.96 1020.24 1020.32 1020.12 1019.92 1019.84 1019.80 1019.72 1019.52 1019.44 1019.36 1019.40 1019.48 1019.52 1019.64 1019.76 1019.96 1020.00 1019.92
1016.72 1016.68 1016.84 1016.96 1016.96 1016.96 1017.04 1017.36 1017.88 1018.40 1018.60 1018.68 1018.72 1018.80 1018.96 1018.96 1018.80 1018.84 1018.88 1019.04 1019.28 1019.60 1019.96 1020.16 1020.36 1020.40 1020.24 1020.08 1019.88 1019.76 1019.60 1019.52 1019.44 1019.32 1019.36 1019.44 1019.52 1019.56 1019.68 1019.88 1020.00 1020.16
1016.80 1016.84 1016.80 1016.84 1017.00 1017.20 1017.48 1017.72 1017.68 1017.36 1017.40 1018.08 1018.68 1018.88 1018.92 1019.00 1019.12 1019.12 1019.08 1019.04 1019.12 1019.40 1019.88 1020.28 1020.52 1020.44 1020.28 1020.12 1019.96 1019.76 1019.64 1019.40 1019.32 1019.32 1019.40 1019.48 1019.48 1019.56 1019.72 1019.88 1019.92 1019.96
1016.68 1016.76 1016.76 1016.80 1016.96 1017.12 1017.40 1017.72 1017.76 1017.52 1017.64 1017.92 1018.28 1018.48 1018.56 1018.80 1019.08 1019.12 1019.24 1019.32 1019.32 1019.52 1019.88 1020.28 1020.44 1020.40 1020.24 1020.16 1020.04 1019.84 1019.60 1019.44 1019.40 1019.44 1019.56 1019.60 1019.72 1019.76 1019.80 1019.84 1019.92 1020.00
1016.72 1016.92 1017.04 1017.04 1017.04 1017.08 1017.20 1017.40 1017.60 1017.72 1017.92 1018.00 1018.32 1018.44 1018.60 1018.92 1019.12 1019.20 1019.20 1019.36 1019.56 1019.72 1019.88 1020.20 1020.32 1020.32 1020.20 1020.08 1020.04 1019.96 1019.72 1019.68 1019.64 1019.64 1019.72 1019.84 1019.92 1019.88 1019.92 1019.96 1020.00 1020.12
1017.16 1017.32 1017.56 1017.64 1017.52 1017.40 1017.48 1017.68 1017.76 1017.80 1018.00 1018.08 1018.52 1018.68 1018.88 1019.04 1019.12 1019.32 1019.36 1019.40 1019.60 1019.88 1019.96 1020.16 1020.36 1020.36 1020.24 1020.12 1020.08 1020.04 1019.96 1020.00 1019.88 1019.88 1019.92 1019.96 1019.96 1019.84 1019.84 1019.96 1019.92 1019.96
1017.60 1017.52 1017.68 1017.92 1018.24 1018.28 1018.08 1018.12 1018.16 1018.16 1018.08 1018.04 1018.24 1018.60 1019.04 1019.16 1019.32 1019.60 1019.68 1019.64 1019.68 1019.76 1019.84 1020.12 1020.28 1020.32 1020.24 1020.24 1020.16 1020.16 1020.04 1020.00 1020.00 1019.96 1020.08 1020.04 1020.04 1020.04 1019.92 1020.08 1020.32 1020.36
1017.52 1017.64 1017.76 1018.08 1018.44 1018.56 1018.68 1018.64 1018.36 1018.36 1018.24 1018.16 1018.32 1018.48 1018.88 1019.12 1019.44 1019.68 1019.88 1020.00 1019.92 1019.92 1020.00 1020.08 1020.28 1020.36 1020.40 1020.36 1020.28 1020.28 1020.24 1020.16 1020.08 1020.12 1020.28 1020.16 1020.00 1020.12 1020.32 1020.48 1020.60 1020.72
Thickness
5797 5797 5796 5796 5795 5795 5794 5793 5793 5793 5792 5793 5793 5794 5795 5796 5796 5796 5795 5795 5795 5795 5795 5794 5794 5793 5793 5792 5792 5792 5791 5791 5791 5792 5792 5791 5791 5792 5792 5793 5794 5794
5797 5798 5797 5796 5796 5796 5796 5795 5795 5795 5794 5794 5795 5796 5797 5798 5798 5797 5796 5796 5796 5795 5795 5795 5795 5794 5794 5793 5793 5792 5791 5791 5791 5791 5791 5790 5791 5791 5791 5792 5793 5794
5797 5798 5797 5796 5796 5796 5796 5797 5797 5796 5796 5796 5797 5797 5797 5799 5798 5798 5797 5797 5796 5796 5796 5795 5795 5795 5794 5794 5793 5792 5792 5790 5790 5791 5791 5790 5791 5791 5791 5793 5792 5793
5798 5798 5798 5798 5797 5797 5797 5797 5796 5796 5797 5796 5797 5798 5799 5799 5798 5798 5798 5798 5797 5796 5796 5796 5795 5795 5795 5794 5794 5792 5792 5791 5790 5791 5789 5789 5790 5790 5790 5791 5791 5792
5799 5798 5799 5799 5798 5798 5798 5797 5796 5797 5797 5797 5798 5799 5799 5799 5798 5798 5798 5797 5797 5796 5796 5796 5795 5795 5795 5794 5794 5792 5791 5791 5791 5790 5788 5787 5789 5789 5790 5791 5790 5790
5798 5799 5799 5799 5799 5799 5797 5797 5796 5797 5797 5797 5798 5798 5799 5799 5798 5798 5797 5797 5797 5797 5796 5796 5795 5795 5795 5794 5793 5792 5791 5790 5790 5790 5788 5787 5788 5789 5790 5790 5789 5789
5798 5798 5799 5799 5799 5799 5797 5797 5797 5798 5798 5798 5798 5798 5799 5798 5797 5797 5798 5797 5797 5797 5796 5796 5795 5795 5795 5794 5793 5791 5791 5790 5790 5790 5788 5787 5788 5787 5789 5789 5789 5788
5798 5798 5799 5798 5798 5797 5797 5797 5798 5798 5799 5799 5798 5798 5798 5798 5797 5798 5798 5797 5796 5796 5796 5796 5795 5795 5795 5795 5793 5791 5790 5790 5790 5790 5788 5788 5787 5786 5788 5789 5788 5788
5799 5798 5798 5797 5797 5796 5796 5797 5798 5799 5799 5799 5798 5798 5799 5798 5798 5797 5797 5797 5796 5796 5796 5796 5795 5796 5795 5795 5793 5791 5790 5790 5790 5790 5788 5787 5787 5786 5788 5789 5788 5787
5799 5798 5798 5797 5796 5796 5796 5797 5798 5799 5799 5798 5798 5798 5798 5798 5798 5798 5797 5796 5795 5795 5795 5795 5795 5795 5795 5794 5794 5792 5791 5790 5790 5790 5789 5788 5788 5788 5789 5788 5787 5786
5798 5798 5797 5796 5796 5796 5797 5797 5798 5799 5799 5798 5797 5797 5797 5798 5798 5797 5797 5796 5795 5795 5794 5794 5795 5795 5794 5793 5793 5793 5792 5792 5791 5790 5790 5790 5789 5789 5789 5789 5787 5787
5797 5796 5796 5796 5796 5796 5797 5798 5798 5798 5798 5798 5798 5797 5797 5797 5797 5797 5796 5795 5795 5796 5795 5794 5794 5794 5793 5793 5792 5793 5792 5792 5791 5791 5790 5790 5791 5790 5790 5791 5789 5788
5795 5796 5797 5796 5796 5797 5798 5798 5798 5798 5798 5798 5798 5797 5796 5796 5796 5795 5796 5796 5795 5796 5795 5795 5794 5793 5793 5792 5792 5792 5791 5790 5790 5790 5790 5790 5790 5791 5792 5791 5792 5791
5795 5796 5797 5797 5797 5797 5798 5798 5798 5798 5797 5798 5798 5797 5796 5796 5795 5794 5795 5795 5795 5795 5795 5795 5794 5792 5792 5792 5792 5792 5791 5790 5789 5789 5789 5789 5789 5791 5792 5792 5792 5792
5794 5795 5796 5797 5796 5796 5796 5797 5797 5797 5798 5798 5797 5797 5797 5797 5797 5795 5794 5793 5794 5794 5793 5794 5793 5792 5793 5793 5792 5792 5791 5790 5789 5789 5788 5788 5788 5790 5791 5792 5793 5793
5793 5794 5794 5794 5794 5794 5794 5795 5795 5795 5796 5795 5796 5796 5797 5797 5797 5795 5793 5792 5792 5792 5792 5793 5793 5793 5793 5793 5792 5792 5791 5790 5789 5789 5788 5788 5788 5788 5789 5791 5792 5793
5790 5791 5791 5791 5791 5791 5792 5793 5793 5792 5792 5791 5792 5793 5795 5797 5796 5794 5793 5792 5792 5792 5791 5791 5790 5789 5788 5789 5790 5790 5790 5789 5788 5787 5788 5787 5787 5787 5787 5788 5791 5792
5787 5788 5787 5787 5788 5788 5788 5789 5789 5788 5788 5788 5787 5788 5791 5793 5792 5791 5790 5791 5791 5790 5788 5786 5784 5783 5783 5784 5786 5786 5786 5787 5787 5786 5787 5787 5786 5786 5786 5786 5787 5789
5783 5785 5784 5783 5785 5785 5785 5785 5783 5781 5782 5783 5783 5783 5784 5785 5786 5786 5785 5785 5786 5785 5782 5781 5779 5778 5779 5780 5781 5782 5783 5784 5785 5785 5785 5785 5785 5785 5784 5785 5785 5784
5781 5782 5783 5783 5783 5783 5783 5781 5779 5779 5779 5779 5778 5778 5778 5779 5780 5781 5781 5780 5781 5780 5778 5776 5775 5774 5776 5777 5777 5779 5780 5781 5783 5783 5783 5782 5782 5783 5783 5783 5781 5780
5779 5779 5781 5781 5781 5780 5778 5776 5776 5780 5781 5777 5775 5775 5776 5776 5776 5776 5776 5777 5778 5777 5775 5772 5770 5770 5772 5773 5774 5776 5777 5779 5780 5781 5781 5780 5780 5781 5781 5779 5778 5778
5775 5776 5777 5777 5777 5776 5775 5774 5775 5778 5778 5775 5774 5775 5775 5774 5772 5772 5772 5772 5773 5773 5771 5768 5767 5768 5769 5770 5771 5772 5774 5775 5776 5776 5776 5776 5776 5777 5777 5776 5774 5774
5770 5771 5771 5771 5772 5773 5773 5773 5774 5774 5774 5772 5772 5773 5773 5770 5768 5768 5767 5767 5767 5767 5767 5766 5765 5765 5766 5766 5767 5768 5770 5770 5771 5772 5771 5770 5771 5772 5773 5772 5771 5770
5764 5765 5764 5764 5765 5767 5767 5768 5770 5770 5771 5771 5770 5768 5767 5765 5763 5762 5762 5763 5763 5762 5762 5762 5761 5761 5762 5763 5763 5764 5765 5765 5766 5766 5766 5765 5766 5767 5768 5768 5766 5766
5758 5758 5758 5758 5757 5758 5758 5760 5762 5765 5768 5769 5769 5765 5761 5759 5757 5756 5756 5758 5759 5759 5758 5758 5757 5758 5758 5758 5759 5759 5760 5761 5761 5761 5761 5761 5761 5762 5762 5763 5761 5760
5752 5752 5753 5753 5751 5749 5749 5751 5755 5758 5761 5764 5763 5760 5757 5755 5753 5752 5751 5752 5753 5753 5754 5753 5753 5753 5753 5753 5755 5755 5755 5756 5756 5756 5756 5757 5758 5757 5756 5755 5754 5754